Overview Statistics Trail Chart Weather Telemetry Raw packets
 

This is the latest recevied weather packets stored in our database for station/object HB9GPU-10. If no packets are shown the sender has not sent any weather packets the latest 10 day(s).

<< 1 2 3 4 >>
Time Temp. Humidity Pressure Rain* Wind** Luminosity Snow
1788662985 23.33° C 40% 1030.2 hPa - - - -
1788662085 23.33° C 40% 1030.3 hPa - - - -
1788661185 23.33° C 39% 1030.3 hPa - - - -
1788660285 23.33° C 39% 1030.2 hPa - - - -
1788659385 23.33° C 40% 1030.2 hPa - - - -
1788658484 22.78° C 40% 1030.3 hPa - - - -
1788657584 23.33° C 38% 1030.2 hPa - - - -
1788656684 23.33° C 39% 1030.2 hPa - - - -
1788655784 23.33° C 39% 1030.3 hPa - - - -
1788654884 23.33° C 39% 1030.4 hPa - - - -
1788653984 23.33° C 39% 1030.4 hPa - - - -
1788653083 23.33° C 39% 1030.5 hPa - - - -
1788652183 23.89° C 39% 1030.5 hPa - - - -
1788651283 23.89° C 39% 1030.7 hPa - - - -
1788650383 23.89° C 38% 1030.6 hPa - - - -
1788649483 22.78° C 40% 1030.7 hPa - - - -
1788648583 23.89° C 39% 1030.6 hPa - - - -
1788647682 23.89° C 40% 1030.6 hPa - - - -
1788646782 23.89° C 39% 1030.5 hPa - - - -
1788645882 23.89° C 40% 1030.4 hPa - - - -
1788644982 24.44° C 40% 1030.4 hPa - - - -
1788644082 24.44° C 40% 1030.3 hPa - - - -
1788643181 24.44° C 40% 1030.2 hPa - - - -
1788642281 24.44° C 40% 1030.1 hPa - - - -
1788641381 24.44° C 41% 1030 hPa - - - -

* Rain since midnight (hover to see other rain measurements)
** Current wind speed in m/s (hover to see current wind gust speed)